Waarnemingen

Advertentie
Mijn weer
Jerez de los Caballeros, Spanje (8337): temperatuur & dauwpunt: 16.01.2018 12:00:00 - 22.01.2018 12:00:00 (CET)Jerez de los Caballeros, Spanje (8337): windsnelheid & windstoten: 16.01.2018 12:00:00 - 22.01.2018 12:00:00 (CET)Jerez de los Caballeros, Spanje (8337): windrichting: 16.01.2018 12:00:00 - 22.01.2018 12:00:00 (CET)Jerez de los Caballeros, Spanje (8337): luchtdruk: 16.01.2018 12:00:00 - 22.01.2018 12:00:00 (CET)Jerez de los Caballeros, Spanje (8337): zicht: 16.01.2018 12:00:00 - 22.01.2018 12:00:00 (CET)Jerez de los Caballeros, Spanje (8337): Zonneschijnduur: 16.01.2018 12:00:00 - 22.01.2018 12:00:00 (CET)Jerez de los Caballeros, Spanje (8337): neerslag: 16.01.2018 12:00:00 - 22.01.2018 12:00:00 (CET)
Datum & Tijd tt [°C] td [°C] ff [km/u] ff [kn] fx [km/u] fx [kn] dd ppp [hPa] vv [km] sd [min] rr [mm]
22.01.2018 12:00:00 7,3 6,2 5 3 18 10 ONO 1031,7 0,1 0 0,0
22.01.2018 11:00:00 6,2 5,1 15 8 19 11 O 1032,0 0,1 0 0,0
22.01.2018 10:00:00 6,2 5,1 14 7 16 9 ONO 1031,8 0,1 0 0,0
22.01.2018 09:00:00 5,9 4,8 5 3 10 5 ONO 1031,9 0,1 0 0,0
22.01.2018 08:00:00 5,9 4,8 4 2 17 9 WZW 1031,7 0,3 0 0,0
22.01.2018 07:00:00 6,3 5,3 12 6 16 9 ONO 1031,2 0,1 0 -
22.01.2018 06:00:00 6,4 5,3 3 1 10 5 WZW 1030,8 0,1 0 0,0
22.01.2018 05:00:00 6,5 5,5 6 3 9 5 O 1031,1 0,2 0 0,0
22.01.2018 04:00:00 5,7 4,6 6 3 7 4 O 1031,6 0,1 0 0,0
22.01.2018 03:00:00 5,5 4,3 5 3 7 4 ONO 1031,9 0,1 0 0,0
22.01.2018 02:00:00 6,0 4,8 3 1 10 5 O 1032,3 0,1 0 0,0
22.01.2018 01:00:00 4,8 3,6 6 3 8 4 O 1032,7 0,1 0 -
22.01.2018 00:00:00 5,7 4,3 3 2 6 3 WZW 1032,6 0,8 0 0,0
21.01.2018 23:00:00 7,2 5,8 2 1 6 4 ZZO 1032,5 8 0 0,0
21.01.2018 22:00:00 8,2 6,5 4 2 6 3 NO 1032,2 1,9 0 0,0
21.01.2018 21:00:00 8,4 6,7 2 1 7 4 Z 1032,1 20 0 0,0
21.01.2018 20:00:00 8,8 7,0 6 3 7 4 ZW 1031,9 19 0 0,0
21.01.2018 19:00:00 9,3 6,8 2 1 17 9 O 1031,6 17 28 -
21.01.2018 18:00:00 11,8 7,8 11 6 17 9 ZZW 1031,0 20 60 0,0
21.01.2018 17:00:00 12,8 8,3 13 7 23 12 W 1030,7 20 60 0,0
21.01.2018 16:00:00 12,4 8,5 11 6 16 9 ZZW 1030,7 20 60 0,0
21.01.2018 15:00:00 10,9 8,5 9 5 14 7 ZW 1031,4 18 38 0,0
21.01.2018 14:00:00 8,3 7,1 8 5 14 7 ZZW 1032,7 10 0 0,0
21.01.2018 13:00:00 7,3 6,1 5 3 13 7 ZW 1033,7 0,5 0 -
21.01.2018 12:00:00 6,3 5,1 4 2 11 6 ZW 1034,3 0,2 0 0,0
21.01.2018 11:00:00 5,6 4,5 6 3 12 6 WZW 1034,4 0,2 0 0,0
21.01.2018 10:00:00 4,8 3,6 6 4 13 7 WZW 1033,9 0,2 0 0,0
21.01.2018 09:00:00 4,2 3,0 4 2 10 6 W 1033,5 0,1 0 0,0
21.01.2018 08:00:00 4,7 3,6 3 1 6 3 Z 1032,7 0,1 0 0,0
21.01.2018 07:00:00 5,1 3,8 3 2 9 5 W 1032,1 0,1 0 -
21.01.2018 06:00:00 4,7 3,4 5 3 9 5 ZW 1032,3 0,3 0 0,0
21.01.2018 05:00:00 5,0 3,4 1 1 8 5 WNW 1032,4 2,6 0 0,0
21.01.2018 04:00:00 5,5 3,8 3 1 14 8 W 1032,5 8 0 0,0
21.01.2018 03:00:00 5,9 3,8 9 5 13 7 ZW 1032,4 15 0 0,0
21.01.2018 02:00:00 6,2 3,6 6 3 10 6 ZW 1032,5 20 0 0,0
21.01.2018 01:00:00 - - - - - - - - - - -
21.01.2018 00:00:00 7,4 3,2 6 3 14 8 ZZW 1032,4 20 0 0,0
20.01.2018 23:00:00 9,1 3,9 8 5 15 8 ZW 1031,8 20 0 0,0
20.01.2018 22:00:00 9,2 3,2 11 6 15 8 ZW 1031,4 20 0 0,0
20.01.2018 21:00:00 10,0 2,1 4 2 23 12 WZW 1031,2 20 0 0,0
20.01.2018 20:00:00 11,3 4,1 16 9 22 12 W 1030,7 20 0 0,0
20.01.2018 19:00:00 11,8 4,1 17 9 22 12 W 1030,1 20 19 -
20.01.2018 18:00:00 14,3 2,5 18 10 24 13 WZW 1029,3 20 60 0,0
20.01.2018 17:00:00 16,3 3,4 18 10 25 13 WZW 1028,5 20 60 0,0
20.01.2018 16:00:00 17,4 2,9 19 10 26 14 WZW 1028,0 20 58 0,0
20.01.2018 15:00:00 17,6 5,8 11 6 17 9 ZZW 1028,2 20 60 0,0
20.01.2018 14:00:00 15,7 5,9 8 5 13 7 ZW 1029,3 20 60 0,0
20.01.2018 13:00:00 13,4 6,2 3 2 8 4 ZW 1030,3 17 60 -
20.01.2018 12:00:00 10,1 5,9 3 1 5 3 WZW 1031,1 6 60 0,0
20.01.2018 11:00:00 6,4 4,1 3 2 7 4 O 1031,8 4,3 60 0,0
20.01.2018 10:00:00 2,7 1,3 5 3 9 5 O 1031,9 8 50 0,0
20.01.2018 09:00:00 1,3 0,2 2 1 10 6 ZW 1031,5 0,2 2 0,0
20.01.2018 08:00:00 1,6 0,4 9 5 11 6 O 1030,6 0,8 0 0,0
20.01.2018 07:00:00 1,7 0,4 4 2 12 6 O 1029,9 0,2 0 -
20.01.2018 06:00:00 2,8 1,3 6 3 11 6 ONO 1029,2 1,7 0 0,0
20.01.2018 05:00:00 2,8 1,3 6 3 8 5 ONO - - 0 0,0
20.01.2018 04:00:00 3,8 2,1 4 2 - - WZW 1028,8 2,6 - -
20.01.2018 03:00:00 4,3 2,1 6 3 10 6 ONO 1028,6 1,5 0 0,0
20.01.2018 02:00:00 5,5 3,0 2 1 8 4 ZO 1028,1 16 0 0,0
20.01.2018 01:00:00 - - - - - - - - - - -
20.01.2018 00:00:00 7,2 3,4 3 2 8 4 ZO 1027,9 20 0 0,0
19.01.2018 23:00:00 9,1 3,8 4 2 6 3 WNW 1027,4 20 0 0,0
19.01.2018 22:00:00 10,2 3,8 2 1 5 3 N 1026,9 20 0 0,0
19.01.2018 21:00:00 11,8 3,6 3 1 8 5 WZW 1025,9 20 0 0,0
19.01.2018 20:00:00 13,2 3,8 4 2 23 12 W 1025,0 20 0 0,0
19.01.2018 19:00:00 14,2 3,9 16 9 29 16 NNW 1023,9 20 25 -
19.01.2018 18:00:00 15,6 2,5 19 10 28 15 NNW 1023,0 20 60 0,0
19.01.2018 17:00:00 18,8 5,9 5 3 11 6 ZZW 1021,3 20 60 0,0
19.01.2018 16:00:00 17,9 4,8 3 2 11 6 OZO 1021,3 20 60 0,0
19.01.2018 15:00:00 17,0 5,0 3 2 8 5 OZO 1021,4 20 60 0,0
19.01.2018 14:00:00 14,1 5,0 6 4 12 7 O 1022,1 20 60 0,0
19.01.2018 13:00:00 11,8 5,0 4 2 12 6 ONO 1023,0 20 60 -
19.01.2018 12:00:00 9,9 5,3 4 2 10 5 Z 1023,6 20 60 0,0
19.01.2018 11:00:00 5,6 3,0 3 2 9 5 N 1023,2 12 60 0,0
19.01.2018 10:00:00 3,6 2,1 4 2 7 4 O 1023,2 11 43 0,0
19.01.2018 09:00:00 2,5 1,3 5 3 10 6 ONO 1022,7 9 0 0,0
19.01.2018 08:00:00 2,1 0,9 5 3 11 6 WZW 1022,4 2,5 0 0,0
19.01.2018 07:00:00 3,3 1,9 4 2 9 5 NNO 1021,8 7 0 -
19.01.2018 06:00:00 3,2 1,9 2 1 11 6 ZO 1021,6 10 0 0,0
19.01.2018 05:00:00 3,8 2,1 4 2 10 5 OZO 1021,5 18 0 0,0
19.01.2018 04:00:00 4,7 2,5 5 3 8 5 ONO 1021,3 5 0 0,0
19.01.2018 03:00:00 4,1 2,1 7 4 9 5 O 1021,7 16 0 0,0
19.01.2018 02:00:00 5,4 2,5 5 3 8 4 O 1021,7 20 0 0,0
19.01.2018 01:00:00 6,0 2,9 4 2 8 4 NO 1021,6 20 0 -
19.01.2018 00:00:00 7,3 2,7 3 2 7 4 O 1021,6 20 0 0,0
18.01.2018 23:00:00 8,7 2,5 4 2 9 5 ONO 1021,1 20 0 0,0
18.01.2018 22:00:00 8,9 2,7 9 5 14 7 OZO 1021,2 20 0 0,0
18.01.2018 21:00:00 11,5 3,0 12 6 19 10 NO 1020,8 20 0 0,0
18.01.2018 20:00:00 12,2 2,9 10 5 18 10 NO 1021,1 20 0 0,0
18.01.2018 19:00:00 12,8 2,9 11 6 21 11 O 1020,6 20 24 -
18.01.2018 18:00:00 14,3 1,9 13 7 24 13 NO 1020,2 20 60 0,0
18.01.2018 17:00:00 16,1 4,5 19 11 24 13 ONO 1019,7 20 60 0,0
18.01.2018 16:00:00 16,9 3,6 17 9 23 12 O 1019,4 20 60 0,0
18.01.2018 15:00:00 17,1 4,5 14 8 26 14 ONO 1019,9 20 60 0,0
18.01.2018 14:00:00 16,0 4,1 15 8 21 12 ONO 1021,0 20 60 0,0
18.01.2018 13:00:00 13,6 5,0 16 9 24 13 ONO 1022,4 20 60 -
18.01.2018 12:00:00 12,1 3,8 21 11 28 15 ONO 1023,3 20 60 0,0
18.01.2018 11:00:00 9,9 3,4 20 11 27 15 ONO 1023,8 20 60 0,0
18.01.2018 10:00:00 8,0 2,9 23 12 35 19 ONO 1023,7 20 60 0,0
18.01.2018 09:00:00 7,0 2,3 27 15 34 19 ONO 1023,2 20 11 0,0
18.01.2018 08:00:00 6,8 2,7 25 13 34 18 NO 1023,2 20 0 0,0
18.01.2018 07:00:00 6,9 3,6 27 15 34 19 NO 1022,9 20 0 -
18.01.2018 06:00:00 7,0 4,1 24 13 35 19 ONO 1022,9 20 0 0,0
18.01.2018 05:00:00 8,0 5,0 28 15 34 19 ONO 1022,9 20 0 0,0
18.01.2018 04:00:00 7,9 5,1 21 12 29 16 ONO 1023,5 19 0 0,0
18.01.2018 03:00:00 7,8 5,1 22 12 33 18 ONO 1023,8 20 0 0,0
18.01.2018 02:00:00 8,3 5,5 26 14 32 17 ONO 1024,0 20 0 0,0
18.01.2018 01:00:00 7,5 5,1 16 9 24 13 ONO 1024,8 20 0 -
18.01.2018 00:00:00 8,3 5,6 20 11 28 15 O 1024,8 20 0 0,0
17.01.2018 23:00:00 9,1 5,5 22 12 32 17 ONO 1024,5 20 0 0,0
17.01.2018 22:00:00 8,9 5,6 14 8 20 11 O 1024,4 20 0 0,0
17.01.2018 21:00:00 9,7 6,1 15 8 18 10 O 1024,5 20 0 0,0
17.01.2018 20:00:00 10,8 6,5 12 6 - - NO 1024,5 20 - -
17.01.2018 19:00:00 11,6 6,7 20 11 28 15 ONO 1024,4 20 23 -
17.01.2018 18:00:00 13,9 6,5 23 12 29 15 ONO 1023,9 20 60 0,0
17.01.2018 17:00:00 15,1 6,4 24 13 29 16 O 1023,4 20 60 0,0
17.01.2018 16:00:00 16,0 5,0 16 9 25 13 NNO 1023,7 20 60 0,0
17.01.2018 15:00:00 16,3 5,0 15 8 24 13 NNO 1023,8 20 60 0,0
17.01.2018 14:00:00 16,0 6,4 9 5 16 9 O 1024,7 20 60 0,0
17.01.2018 13:00:00 13,1 7,7 8 5 14 7 OZO 1026,0 20 60 -
17.01.2018 12:00:00 9,8 8,6 7 4 11 6 OZO - - 60 0,0
17.01.2018 11:00:00 7,1 5,9 3 2 8 5 O 1028,0 0,1 52 0,0
17.01.2018 10:00:00 6,0 4,8 4 2 8 5 NNO 1028,0 0,1 27 0,0
17.01.2018 09:00:00 7,2 5,6 4 2 6 3 ZZW 1027,7 0,2 0 0,0
17.01.2018 08:00:00 8,2 6,5 2 1 5 3 NNO 1027,6 7 0 0,0
17.01.2018 07:00:00 9,2 7,0 2 1 11 6 NO 1027,4 20 0 -
17.01.2018 06:00:00 9,6 7,8 6 3 10 5 WNW 1027,0 20 0 0,0
17.01.2018 05:00:00 10,3 8,4 6 4 12 7 O 1026,9 11 0 0,0
17.01.2018 04:00:00 10,6 8,5 10 5 21 11 NNO 1027,6 20 0 0,0
17.01.2018 03:00:00 10,7 8,9 10 5 19 11 NNW 1028,1 20 0 0,0
17.01.2018 02:00:00 10,1 8,7 10 5 16 9 NW 1028,7 7 0 0,0
17.01.2018 01:00:00 10,3 8,8 5 3 11 6 NW 1028,8 14 0 -
17.01.2018 00:00:00 10,7 8,9 3 1 6 4 ZZW 1029,0 20 0 0,0
16.01.2018 23:00:00 10,6 8,9 4 2 8 4 ZZW 1029,5 17 0 0,0
16.01.2018 22:00:00 10,7 9,2 4 2 14 7 ZO 1029,7 11 0 0,0
16.01.2018 21:00:00 10,3 8,8 5 3 9 5 O 1029,6 10 0 0,0
16.01.2018 20:00:00 10,4 8,7 5 3 8 4 ZZW 1029,8 14 0 0,0
16.01.2018 19:00:00 10,4 8,7 3 2 13 7 W 1029,7 10 0 -
16.01.2018 18:00:00 10,7 8,8 9 5 14 7 WZW 1029,8 7 0 0,0
16.01.2018 17:00:00 11,2 8,7 8 4 22 12 W 1030,0 20 0 0,0
16.01.2018 16:00:00 11,9 8,5 17 9 24 13 W 1029,9 20 0 0,0
16.01.2018 15:00:00 12,5 8,4 20 11 26 14 WZW 1029,9 20 16 0,0
16.01.2018 14:00:00 13,6 8,4 14 8 21 11 ZW 1030,3 20 60 0,0
16.01.2018 13:00:00 12,1 5,5 6 3 10 6 ZW 1031,6 20 60 -
16.01.2018 12:00:00 9,1 3,2 5 3 9 5 ZW 1032,9 20 60 0,0

tt = temperatuur
td = dauwpunt
ff = windsnelheid
fx = windstoten
dd = windrichting
ppp = luchtdruk
vv = zicht
sd = Zonneschijnduur
rr = neerslag

Weerstations in de omgeving